Location: Fort Wayne
(41.1310°N, 85.1290°W)
Time: 18:49:42
(UTC-05:00)

Gbstr 26 Del rocket - Visible Passes

Search period start: 07 February 2016 00:00
Search period end: 17 February 2016 00:00
Orbit: 493 x 1268 km, 51.8° (Epoch: 06 February)

Date Brightness Start Highest point End Pass type
(mag) Time Alt. Az. Time Alt. Az. Time Alt. Az.
07 Feb 6.2 04:09:03 12° NE 04:09:03 12° NE 04:09:36 10° NE visible
07 Feb 4.9 05:51:39 22° NNW 05:53:39 29° NNE 05:58:46 10° ENE visible
08 Feb 6.3 04:05:17 12° NE 04:05:17 12° NE 04:05:46 10° NE visible
08 Feb 4.8 05:47:53 23° NNW 05:49:54 31° NNE 05:55:08 10° E visible
09 Feb 6.3 04:01:32 12° NE 04:01:32 12° NE 04:01:59 10° NE visible
09 Feb 4.7 05:44:08 25° NNW 05:46:06 34° NNE 05:51:30 10° E visible
10 Feb 6.3 03:57:48 12° NE 03:57:48 12° NE 03:58:13 10° NE visible
10 Feb 4.6 05:40:24 28° NNW 05:42:19 37° NNE 05:47:51 10° E visible
11 Feb 6.4 03:54:07 11° NE 03:54:07 11° NE 03:54:30 10° ENE visible
11 Feb 4.4 05:36:43 31° NNW 05:38:29 42° NNE 05:44:10 10° E visible
12 Feb 6.4 03:50:28 11° ENE 03:50:28 11° ENE 03:50:49 10° ENE visible
12 Feb 4.2 05:33:04 36° NNW 05:34:38 49° NNE 05:40:27 10° ESE visible
13 Feb 6.4 03:46:52 11° ENE 03:46:52 11° ENE 03:47:10 10° ENE visible
13 Feb 3.9 05:29:28 44° NNW 05:30:47 57° NNE 05:36:41 10° ESE visible
14 Feb 6.5 03:43:20 11° ENE 03:43:20 11° ENE 03:43:33 10° ENE visible
14 Feb 3.6 05:25:56 55° NNW 05:26:54 68° NNE 05:32:52 10° ESE visible
15 Feb 6.5 03:39:52 10° ENE 03:39:52 10° ENE 03:39:55 10° ENE visible
15 Feb 3.4 05:22:29 72° NNW 05:22:59 82° NE 05:29:00 10° SE visible
15 Feb 5.0 07:05:41 10° W 07:09:53 23° SW 07:14:46 10° S visible
16 Feb 3.3 05:19:06 82° SSW 05:19:06 82° SSW 05:25:03 10° SE visible
16 Feb 5.3 07:02:18 10° W 07:05:53 18° SW 07:09:57 10° S visible
